Theta_e
324 325 325 329 332 332 332 331 330 331 331 328 324 322 321 320 318 318 318 318 317 318 318 317 315 314 314 314 313 313 311 310
326 326 328 329 332 332 332 330 330 330 327 324 322 321 320 318 317 317 317 316 315 315 315 315 315 313 313 313 312 310 308 308
324 326 328 330 331 332 331 330 330 327 324 323 324 323 319 317 317 316 316 315 315 314 314 313 313 311 312 311 310 307 305 305
324 326 328 330 330 330 329 329 326 324 323 321 319 319 318 316 315 315 314 314 314 313 313 312 311 310 307 309 307 306 301 302
325 326 326 327 329 330 327 325 322 320 318 318 317 315 313 313 313 313 312 312 311 309 308 308 309 308 307 306 306 305 303 299
324 326 328 328 328 327 324 321 317 317 317 318 315 313 312 312 309 306 305 305 304 303 303 304 306 306 307 307 306 305 302 300
324 325 325 323 323 321 319 316 315 315 315 315 313 309 305 304 302 301 301 301 301 302 302 303 304 304 306 306 305 303 301 300
318 318 316 316 316 316 316 314 312 314 313 309 306 305 303 302 301 300 300 300 300 301 303 304 304 305 306 304 302 301 300 298
314 314 314 314 315 315 314 313 312 310 306 305 304 303 302 302 301 301 300 299 300 301 303 304 304 304 303 302 301 301 300 298
312 313 314 314 314 314 314 313 309 306 305 305 303 303 303 302 301 301 300 300 299 300 302 303 304 303 302 302 300 299 298 297
313 313 314 315 314 314 314 311 306 305 305 303 303 303 303 303 302 300 299 300 300 300 300 301 301 301 301 300 298 298 296 296
313 314 315 314 314 313 310 307 306 304 303 303 302 302 302 302 301 299 299 299 299 298 298 299 299 298 299 298 297 297 295 294
314 314 313 312 312 310 307 306 305 304 303 302 302 302 301 300 299 299 299 298 298 298 298 298 297 297 297 295 295 294 294 293
314 314 311 311 310 308 306 305 304 303 301 301 301 301 301 299 299 299 298 298 297 298 298 297 296 297 296 296 294 294 293 293
313 312 311 311 309 306 305 304 304 301 300 300 300 300 300 299 299 298 297 297 297 297 297 297 296 295 294 293 293 293 293 292
312 310 310 310 308 305 304 305 302 301 300 299 299 300 300 299 298 298 297 297 297 297 296 296 296 295 293 292 292 292 291 290
310 310 309 307 306 304 304 303 301 301 299 299 299 299 298 298 297 297 296 296 296 296 295 295 295 294 286 285 284 289 289 289
309 308 308 307 306 305 303 301 301 299 298 298 297 297 296 296 297 296 295 295 296 295 295 294 294 294 286 283 282 286 288 288
309 309 308 308 307 304 303 301 299 298 297 296 296 296 295 295 295 295 295 296 295 294 294 294 293 289 284 282 282 286 288 287
Wind_Speed
12 13 14 14 14 14 14 11 10 8 5 5 6 6 5 4 5 6 5 5 5 4 1 3 6 6 7 8 10 10 10 10
10 10 11 13 14 14 13 11 9 7 6 6 6 6 5 5 7 5 5 5 5 4 6 7 7 8 10 10 9 11 11 11
11 11 12 12 14 12 13 10 9 6 5 5 4 3 6 6 5 5 5 6 7 7 8 8 10 9 11 11 11 9 10 10
13 13 12 12 12 12 11 11 10 6 7 5 5 5 5 4 4 3 5 5 8 9 10 9 10 10 10 10 10 10 10 9
14 14 14 11 13 12 11 11 10 6 3 6 7 7 6 5 4 6 6 7 9 11 12 11 10 9 11 10 8 6 10 9
17 18 18 16 13 11 12 10 9 8 8 6 5 5 4 3 5 7 8 9 11 11 12 12 11 9 10 10 8 8 7 9
15 15 15 14 12 11 11 11 10 10 10 9 9 7 5 4 5 5 6 6 7 9 11 11 11 11 10 7 5 6 8 9
17 18 16 16 14 13 11 12 11 11 10 10 9 6 5 6 6 5 7 6 7 8 11 11 10 9 6 6 6 7 9 6
17 17 15 15 15 14 13 13 13 12 11 10 7 5 4 4 5 5 5 6 7 10 10 10 9 6 3 3 6 7 8 9
18 17 15 15 14 14 14 14 12 12 10 8 6 5 5 3 3 5 5 7 7 9 10 9 5 6 5 10 7 10 8 4
17 16 15 14 14 14 14 13 13 11 10 8 7 5 4 0 3 5 6 7 8 9 10 10 6 7 9 11 9 10 8 6
17 14 14 14 15 15 14 14 13 11 10 8 6 6 4 3 3 4 6 7 9 9 9 10 11 9 12 12 10 12 10 8
17 15 15 16 16 16 16 13 12 11 9 9 8 6 5 3 4 5 6 8 8 9 9 9 11 11 11 9 10 9 10 10
16 16 16 16 17 16 15 13 12 11 10 10 9 7 6 5 5 5 6 8 9 8 9 9 10 8 10 11 9 9 10 10
17 16 17 17 17 16 15 13 12 12 11 9 7 6 6 5 6 6 7 8 9 8 9 8 9 8 9 9 9 9 10 10
17 16 16 17 17 16 14 13 12 12 10 8 6 6 6 8 7 8 7 8 8 9 7 8 7 8 4 7 10 10 9 10
17 18 18 18 19 17 15 13 13 11 9 8 6 6 7 8 8 8 9 9 8 9 8 8 7 6 11 7 6 8 10 10
17 18 18 17 17 16 14 13 12 11 9 7 6 6 7 8 10 10 10 9 8 10 8 9 6 0 11 4 3 7 9 10
15 14 15 16 15 15 12 13 12 10 8 5 7 6 8 10 11 11 10 9 9 8 8 7 7 8 12 4 5 9 8 9
Wind_Direction
166 173 167 160 157 159 157 161 151 181 138 122 118 117 125 122 83 73 38 74 25 337 32 348 312 317 322 341 320 317 308 305
163 185 165 168 159 166 167 164 174 197 155 140 142 149 116 105 85 59 51 27 32 7 340 325 323 324 328 312 303 313 313 315
171 168 177 174 169 163 177 161 172 160 141 87 34 78 59 78 81 74 52 19 357 333 346 325 332 319 314 308 317 313 304 314
170 172 169 164 166 170 165 163 147 100 106 139 114 110 153 170 97 59 45 3 338 331 328 322 318 311 313 321 310 318 310 319
170 169 163 161 161 160 159 139 116 126 157 78 45 40 46 43 12 28 327 339 331 328 322 315 312 311 308 306 310 338 302 310
165 164 160 162 146 153 135 131 126 126 109 116 107 83 86 55 16 350 345 350 338 334 331 331 321 308 305 304 304 316 313 314
157 151 149 136 143 140 141 147 131 114 104 97 91 82 71 38 14 354 358 330 335 338 336 323 311 297 293 301 340 318 344 320
162 157 158 154 154 156 155 141 134 128 118 106 98 92 58 55 6 4 332 336 337 337 328 322 311 311 336 3 12 333 297 295
171 169 167 163 164 162 159 157 148 136 127 117 104 71 76 41 24 344 332 333 332 330 323 317 312 353 7 304 290 286 275 273
182 179 176 171 170 168 168 165 148 147 138 129 133 125 86 47 345 336 347 336 327 332 317 306 13 289 302 286 279 268 285 289
189 187 177 176 180 172 175 164 161 149 147 154 164 140 136 239 338 351 338 326 316 318 314 309 274 257 275 276 297 313 281 286
193 184 183 185 181 174 175 173 160 161 168 159 165 163 183 246 329 334 329 319 315 313 311 308 301 290 289 299 302 279 295 302
196 187 185 187 184 180 181 172 171 179 164 175 176 190 216 258 308 317 320 307 310 306 303 293 290 305 306 300 285 304 294 299
196 190 191 191 187 187 179 181 185 175 186 183 192 201 229 261 281 297 302 308 304 299 291 294 302 309 288 289 282 297 305 316
206 195 197 196 192 190 185 185 181 192 196 201 203 221 244 257 269 285 299 300 296 288 284 311 307 301 303 302 310 309 312 305
210 205 204 200 196 195 192 186 187 198 206 207 218 220 243 253 264 274 288 291 288 282 288 287 289 287 335 356 324 310 312 310
209 211 209 205 200 197 196 186 191 196 203 217 231 239 253 265 272 279 275 281 293 288 294 281 279 278 99 67 340 316 307 310
214 214 214 209 203 199 193 191 190 195 210 221 241 251 264 267 269 274 273 285 287 287 299 297 288 223 117 108 323 303 304 316
221 217 214 212 206 190 201 194 193 200 212 236 253 265 265 268 273 274 275 278 285 291 288 292 277 111 133 134 287 286 310 314